Granada, Spain

3:11 PM CEST on August 25, 2016 (GMT +0200)
Granada

Weather History for LEGR - October, 2012

Change the Weather History Date:

Tuesday, October 9, 2012

  Actual Average Record
Temperature  
Mean Temperature 68 °F -  
Max Temperature 88 °F 68 °F 88 °F (2012)
Min Temperature 49 °F 45 °F 37 °F (1996)
Cooling Degree Days 4    
Growing Degree Days 18 (Base 50)    
Moisture  
Dew Point 50 °F    
Average Humidity 52    
Maximum Humidity 94    
Minimum Humidity 20    
Precipitation  
Precipitation 0.00 in - - ()
Sea Level Pressure  
Sea Level Pressure 30.09 in    
Wind  
Wind Speed 1 mph ()    
Max Wind Speed 7 mph    
Max Gust Speed -    
Visibility 14.1 miles    
Events      
Averages and records for this station are not official NWS values.
T = Trace of Precipitation, MM = Missing Value Source: Averaged Metar Reports

Daily Weather History Graph

Daily Weather History Graph

Search for Another Location

Airport or City:

Trip Planner

Search our weather history database for the weather conditions in past years. The results will help you decide how hot, cold, wet, or windy it might be!

Date:

Astronomy

Oct. 09, 2012 Rise Set
Actual Time 8:17 AM CEST 7:46 PM CEST
Civil Twilight 7:51 AM CEST 8:12 PM CEST
Nautical Twilight 7:21 AM CEST 8:42 PM CEST
Astronomical Twilight 6:51 AM CEST 9:12 PM CEST
Moon 1:48 AM CEST (10/9) 3:57 PM CEST (10/9)
Length of Visible Light 12h 20m
Length of Day
11h 28m
Last Quarter, 39% of the Moon is Illuminated
Oct 9
Last Quarter
Oct 15
New
Oct 22
First Quarter
Oct 29
Full
Nov 7
Last Quarter

Hourly Weather History & Observations

Time (CEST) Temp. Dew Point Humidity Pressure Visibility Wind Dir Wind Speed Gust Speed Precip Events Conditions
2:00 AM 56 °F 47 °F 64% 30.14 in 19 mi Calm Calm - -   Clear
6:00 AM 53.6 °F 50.0 °F 88% 30.12 in - Calm Calm - N/A   Clear
6:30 AM 51.8 °F 48.2 °F 88% 30.12 in - Calm Calm - N/A   Clear
7:30 AM 51.8 °F 48.2 °F 88% 30.12 in - Calm Calm - N/A   Clear
8:00 AM 49 °F 44 °F 76% 30.16 in 9 mi Calm Calm - -  
8:00 AM 51.8 °F 48.2 °F 88% 30.12 in - Calm Calm - N/A   Clear
8:30 AM 51.8 °F 48.2 °F 88% 30.15 in - Calm Calm - N/A   Clear
9:00 AM 51.8 °F 50.0 °F 94% 30.15 in - Calm Calm - N/A   Clear
9:30 AM 55.4 °F 50.0 °F 82% 30.15 in 4.3 mi Calm Calm - N/A   Partly Cloudy
10:00 AM 59.0 °F 51.8 °F 77% 30.15 in - Calm Calm - N/A   Clear
10:30 AM 60.8 °F 51.8 °F 72% 30.18 in - Calm Calm - N/A   Clear
11:00 AM 64.4 °F 51.8 °F 64% 30.18 in - Calm Calm - N/A   Clear
11:30 AM 68.0 °F 51.8 °F 56% 30.18 in - Calm Calm - N/A   Clear
12:00 PM 71.6 °F 50.0 °F 46% 30.15 in - Calm Calm - N/A   Clear
1:00 PM 77.0 °F 50.0 °F 39% 30.12 in - Calm Calm - N/A   Clear
1:30 PM 78.8 °F 50.0 °F 36% 30.12 in - Variable 1.2 mph - N/A   Clear
2:00 PM 81 °F 48 °F 21% 30.01 in 19 mi Calm Calm - -  
2:00 PM 80.6 °F 51.8 °F 37% 30.09 in - Variable 1.2 mph - N/A   Clear
2:30 PM 82.4 °F 50.0 °F 32% 30.09 in - Variable 2.3 mph - N/A   Clear
3:00 PM 84.2 °F 48.2 °F 29% 30.06 in - Variable 2.3 mph - N/A   Clear
3:30 PM 86.0 °F 46.4 °F 25% 30.06 in - Variable 2.3 mph - N/A   Clear
4:00 PM 87.8 °F 44.6 °F 22% 30.06 in - Variable 1.2 mph - N/A   Clear
4:30 PM 89.6 °F 44.6 °F 21% 30.04 in - Variable 1.2 mph - N/A   Clear
5:00 PM 89.6 °F 42.8 °F 20% 30.04 in - Variable 2.3 mph - N/A   Clear
5:30 PM 89.6 °F 44.6 °F 21% 30.04 in - Variable 2.3 mph - N/A   Clear
6:00 PM 89.6 °F 48.2 °F 24% 30.04 in - West 3.5 mph - N/A   Clear
6:30 PM 87.8 °F 44.6 °F 22% 30.04 in - West 4.6 mph - N/A   Clear
7:00 PM 84.2 °F 50.0 °F 30% 30.04 in - West 6.9 mph - N/A   Clear
7:30 PM 84.2 °F 50.0 °F 30% 30.04 in - West 5.8 mph - N/A   Clear
8:00 PM 78 °F 50 °F 27% 29.95 in 19 mi WSW 6.9 mph - -  
8:00 PM 78.8 °F 53.6 °F 42% 30.04 in - WSW 5.8 mph - N/A   Clear
8:30 PM 75.2 °F 53.6 °F 47% 30.06 in - WSW 3.5 mph - N/A   Clear
9:00 PM 77.0 °F 53.6 °F 44% 30.06 in - Calm Calm - N/A   Clear
9:30 PM 71.6 °F 55.4 °F 57% 30.06 in - South 3.5 mph - N/A   Clear
10:00 PM 71.6 °F 55.4 °F 57% 30.06 in - Variable 1.2 mph - N/A   Clear
10:30 PM 71.6 °F 55.4 °F 57% 30.06 in - Variable 1.2 mph - N/A   Clear
11:00 PM 66.2 °F 57.2 °F 73% 30.09 in - Calm Calm - N/A   Clear
11:30 PM 66.2 °F 57.2 °F 73% 30.09 in - Calm Calm - N/A   Clear